[[{"header":{"parameterUnit":"m.s-1","parameterCategory":1,"la1":30.2991,"la2":30.254,"lo1":-89.0895,"lo2":-89.0444,"dy":0.0017,"dx":0.0017,"nx":28,"ny":28,"refTime":"2024-02-06T03:00:00:Z","depth":0,"parameterNumber":2,"parameterNumberName":"U-component_of_WINDS"},"data":[0,0,0,0,0,0,0,0,0,0,0,0,0,0,0,0,0,0,0,0,0,0,0,0,0,0,0,0,0,0,0,0,0,0,0,0,0,0,0,0,0,0,0,0,0,0,0,0,0,0,0,0,0,0,0,0,0,0,-1.1273,-1.1273,0,-1.133,-1.1331,-1.1332,-1.1333,-1.1332,-1.1331,-1.133,-1.1391,-1.1393,-1.1396,0,0,0,0,0,0,0,0,0,0,0,0,0,-1.1164,-1.1166,-1.1272,-1.1273,-1.1274,-1.133,-1.1331,-1.1332,-1.1333,-1.1332,-1.1331,-1.133,-1.139,-1.1393,-1.1396,0,0,0,0,0,0,0,0,0,0,0,0,0,-1.1215,-1.1167,-1.1272,-1.1281,-1.1282,-1.133,-1.1331,-1.1332,-1.1333,-1.1332,-1.1331,-1.133,-1.1389,-1.1393,-1.1396,-1.1439,0,0,-1.1407,-1.1408,0,0,0,0,0,0,0,0,-1.1212,-1.1219,-1.1279,-1.1281,-1.1282,-1.1323,-1.1315,-1.1368,-1.1333,-1.1314,-1.133,-1.1329,-1.1369,-1.1374,-1.1388,-1.1442,-1.1445,-1.1407,-1.1409,-1.1411,-1.1412,0,0,0,0,0,0,0,-1.1209,-1.1217,-1.1295,-1.128,-1.1282,-1.1283,-1.1289,-1.1325,-1.1347,-1.1315,-1.1316,-1.1322,-1.137,-1.1384,-1.1389,-1.1446,-1.1407,-1.141,-1.1412,-1.1413,-1.1539,-1.154,0,0,0,0,0,0,-1.1203,-1.1214,-1.1294,-1.1297,-1.1244,-1.1285,-1.1292,-1.1311,-1.1347,-1.1351,-1.1323,-1.1322,-1.1379,-1.1385,-1.1391,-1.1445,-1.1411,-1.1414,-1.1416,-1.1538,-1.1539,-1.1541,0,0,0,0,0,0,-1.1201,-1.121,-1.1291,-1.1256,-1.1266,-1.1288,-1.131,-1.1313,-1.1327,-1.1353,-1.1357,-1.1334,-1.1378,-1.1387,-1.1427,-1.1447,-1.1415,-1.1418,-1.1536,-1.1538,-1.154,-1.1551,0,0,0,0,0,0,-1.1198,-1.121,-1.1226,-1.1256,-1.1268,-1.1326,-1.1311,-1.1315,-1.1333,-1.1332,-1.1364,-1.1368,-1.1378,-1.1422,-1.1431,-1.1451,-1.1421,-1.1535,-1.1537,-1.1539,-1.1549,-1.1553,-1.1557,0,0,0,0,0,-1.1194,-1.1227,-1.1227,-1.1236,-1.1289,-1.1327,-1.1334,-1.1345,-1.1334,-1.1351,-1.1368,-1.1367,-1.1443,-1.1426,-1.1436,-1.1458,-1.1534,-1.1536,-1.1539,-1.1548,-1.1553,-1.1557,0,0,0,0,0,0,-1.1199,-1.1231,-1.1231,-1.1275,-1.1298,-1.1327,-1.1349,-1.135,-1.1377,-1.1375,-1.1388,-1.1395,-1.1436,-1.1451,-1.1432,-1.1501,-1.1487,-1.1492,-1.149,-1.1495,-1.1499,-1.1495,-1.1424,0,0,0,0,0,-1.1206,-1.1234,-1.126,-1.1296,-1.1308,-1.1326,-1.1344,-1.135,-1.1375,-1.1385,-1.1404,-1.1429,-1.1458,-1.1477,-1.1506,-1.1551,-1.1558,-1.1571,-1.1575,-1.1578,-1.1582,-1.1607,-1.1613,-1.155,-1.155,-1.155,0,0,-1.1219,-1.124,-1.1257,-1.1298,-1.1317,-1.1346,-1.1335,-1.1366,-1.1388,-1.139,-1.143,-1.1445,-1.1473,-1.1516,-1.1536,-1.153,-1.1601,-1.1581,-1.1583,-1.1586,-1.1611,-1.1617,-1.1622,-1.1552,-1.1552,-1.1551,0,0,-1.1258,-1.1276,-1.1309,-1.1328,-1.1356,-1.1368,-1.1376,-1.1405,-1.1415,-1.1455,-1.1456,-1.1483,-1.1533,-1.1554,-1.157,-1.1617,-1.1617,-1.1626,-1.1646,-1.167,-1.1675,-1.168,-1.1697,-1.1703,-1.163,-1.163,-1.163,0,-1.1271,-1.1315,-1.1325,-1.1357,-1.1375,-1.1377,-1.141,-1.1428,-1.1465,-1.1477,-1.1469,-1.1533,-1.1552,-1.16,-1.1612,-1.1625,-1.1635,-1.1623,-1.1674,-1.1678,-1.1683,-1.1699,-1.1705,-1.1631,-1.1631,-1.1631,-1.1631,0,-1.133,-1.136,-1.1383,-1.1417,-1.1438,-1.147,-1.1486,-1.1505,-1.151,-1.1523,-1.1564,-1.1587,-1.162,-1.1632,-1.1637,-1.1681,-1.1676,-1.1671,-1.1657,-1.1689,-1.1705,-1.1711,-1.1632,-1.1632,-1.1632,-1.1631,0,0,-1.1374,-1.1414,-1.1422,-1.1438,-1.147,-1.1494,-1.1526,-1.1558,-1.1575,-1.16,-1.1628,-1.167,-1.1665,-1.1684,-1.1692,-1.1713,-1.1749,-1.1705,-1.1706,-1.1713,-1.18,-1.1804,-1.1811,-1.1749,-1.175,-1.1751,-1.1797,0,-1.1417,-1.1474,-1.1484,-1.1534,-1.1563,-1.1565,-1.1593,-1.1616,-1.1629,-1.1655,-1.1669,-1.17,-1.1691,-1.1702,-1.1724,-1.174,-1.1767,-1.1737,-1.1776,-1.1777,-1.1769,-1.1819,-1.1823,-1.1866,-1.1804,-1.1805,-1.1805,0,-1.1475,-1.1501,-1.1554,-1.1581,-1.1594,-1.1619,-1.1649,-1.1674,-1.17,-1.1708,-1.1729,-1.1734,-1.1768,-1.1752,-1.1799,-1.1778,-1.1795,-1.1805,-1.1807,-1.1812,-1.1793,-1.1825,-1.1879,-1.1886,-1.1815,-1.1814,-1.1814,0,-1.1503,-1.1551,-1.1589,-1.1602,-1.1635,-1.1653,-1.1668,-1.1692,-1.1711,-1.1738,-1.175,-1.178,-1.1797,-1.1821,-1.1834,-1.1821,-1.188,-1.1865,-1.1888,-1.1888,-1.1901,-1.19,-1.1959,-1.1911,-1.1911,-1.1911,-1.191,0,-1.155,-1.1582,-1.1602,-1.1625,-1.1661,-1.1673,-1.1708,-1.1723,-1.1745,-1.1771,-1.1775,-1.18,-1.1815,-1.1842,-1.1853,-1.1891,-1.1898,-1.1906,-1.1908,-1.1906,-1.1905,-1.1917,-1.1915,-1.1912,-1.1912,-1.1912,-1.1911,0,-1.1587,-1.1601,-1.1643,-1.1671,-1.1678,-1.1704,-1.1728,-1.1751,-1.1764,-1.1797,-1.1806,-1.1826,-1.1858,-1.1873,-1.1913,-1.192,-1.1963,-1.1963,-1.1954,-1.1955,-1.1978,-1.1975,-1.2047,-1.2057,-1.2002,-1.2002,-1.2003,0,-1.1616,-1.1641,-1.1671,-1.1689,-1.1704,-1.1733,-1.1752,-1.1764,-1.1784,-1.1815,-1.1834,-1.1867,-1.1893,-1.1944,-1.1963,-1.1994,-1.1995,-1.2018,-1.2,-1.1996,-1.1996,-1.1994,-1.1997,-1.2021,-1.2022,-1.2022,-1.2023,0,-1.1667,-1.1673,-1.17,-1.1729,-1.1752,-1.1776,-1.1799,-1.1814,-1.183,-1.1852,-1.1885,-1.1905,-1.1946,-1.1978,-1.201,-1.2025,-1.2027,-1.2028,-1.2035,-1.2033,-1.2027,-1.2031,-1.1964,-1.2027,-1.2026,-1.2026,-1.2026,-1.2026,-1.1701,-1.1723,-1.1748,-1.1778,-1.1797,-1.1819,-1.1842,-1.1858,-1.1885,-1.1919,-1.1924,-1.1959,-1.1985,-1.2027,-1.2044,-1.2072,-1.2067,-1.2077,-1.2079,-1.2082,-1.2083,-1.2022,-1.2078,-1.2078,-1.2078,-1.2077,-1.2077,0,-1.1752,-1.1768,-1.1796,-1.1829,-1.1852,-1.1851,-1.1877,-1.1897,-1.1928,-1.1951,-1.1977,-1.2015,-1.2046,-1.2066,-1.2098,-1.2116,-1.2118,-1.2124,-1.2123,-1.2127,-1.2086,-1.2077,-1.2122,-1.2122,-1.2122,-1.2122,-1.2122,-1.2122,-1.1782,-1.1819,-1.1828,-1.1875,-1.1891,-1.1925,-1.194,-1.1961,-1.1979,-1.2021,-1.2047,-1.206,-1.2082,-1.2116,-1.2144,-1.215,-1.2161,-1.2168,-1.2173,-1.2135,-1.213,-1.2125,-1.2117,-1.217,-1.217,-1.2212,-1.2212,-1.2213]},{"header":{"parameterUnit":"m.s-1","parameterCategory":1,"la1":30.2991,"la2":30.254,"lo1":-89.0895,"lo2":-89.0444,"dy":0.0017,"dx":0.0017,"nx":28,"ny":28,"refTime":"2024-02-06T03:00:00:Z","depth":0,"parameterNumber":3,"parameterNumberName":"V-component_of_WINDS"},"data":[0,0,0,0,0,0,0,0,0,0,0,0,0,0,0,0,0,0,0,0,0,0,0,0,0,0,0,0,0,0,0,0,0,0,0,0,0,0,0,0,0,0,0,0,0,0,0,0,0,0,0,0,0,0,0,0,0,0,-2.8045,-2.8046,0,-2.8091,-2.8091,-2.8092,-2.8072,-2.8071,-2.807,-2.8068,-2.8112,-2.8114,-2.8116,0,0,0,0,0,0,0,0,0,0,0,0,0,-2.7938,-2.794,-2.8045,-2.8046,-2.8046,-2.809,-2.8091,-2.8092,-2.8072,-2.8071,-2.8069,-2.8068,-2.8111,-2.8114,-2.8117,0,0,0,0,0,0,0,0,0,0,0,0,0,-2.7984,-2.7941,-2.8045,-2.8042,-2.8042,-2.809,-2.8091,-2.8092,-2.8072,-2.8071,-2.8069,-2.8067,-2.8111,-2.8114,-2.8117,-2.817,0,0,-2.8127,-2.8128,0,0,0,0,0,0,0,0,-2.7982,-2.7988,-2.8042,-2.8042,-2.8042,-2.8074,-2.8069,-2.8118,-2.8073,-2.8061,-2.8068,-2.8067,-2.8101,-2.8105,-2.8117,-2.8172,-2.8174,-2.8127,-2.8129,-2.8131,-2.8132,0,0,0,0,0,0,0,-2.7978,-2.7986,-2.8063,-2.8042,-2.8043,-2.8037,-2.8042,-2.8079,-2.8089,-2.8062,-2.806,-2.8066,-2.81,-2.8114,-2.8118,-2.8175,-2.8127,-2.813,-2.8132,-2.8134,-2.8277,-2.8279,0,0,0,0,0,0,-2.7976,-2.7984,-2.8061,-2.8064,-2.8007,-2.804,-2.8046,-2.8065,-2.8089,-2.8091,-2.8067,-2.8065,-2.8109,-2.8114,-2.8119,-2.8183,-2.8131,-2.8134,-2.8136,-2.8275,-2.8278,-2.8279,0,0,0,0,0,0,-2.7973,-2.7983,-2.806,-2.8024,-2.8033,-2.8044,-2.8066,-2.8067,-2.808,-2.8093,-2.8095,-2.8079,-2.8108,-2.8114,-2.8158,-2.8185,-2.8135,-2.8138,-2.8273,-2.8276,-2.8279,-2.8312,0,0,0,0,0,0,-2.797,-2.7982,-2.8003,-2.8024,-2.8035,-2.8099,-2.8068,-2.8069,-2.8086,-2.8084,-2.8105,-2.8106,-2.8107,-2.8153,-2.8161,-2.8188,-2.8141,-2.8271,-2.8274,-2.8278,-2.8309,-2.8316,-2.8322,0,0,0,0,0,-2.7967,-2.801,-2.8004,-2.8014,-2.8062,-2.81,-2.8106,-2.8107,-2.8089,-2.8109,-2.8118,-2.8106,-2.818,-2.8158,-2.8167,-2.8195,-2.8269,-2.8273,-2.8277,-2.8306,-2.8315,-2.8322,0,0,0,0,0,0,-2.799,-2.8013,-2.8007,-2.8058,-2.8078,-2.8097,-2.8123,-2.8116,-2.814,-2.8136,-2.8135,-2.814,-2.8185,-2.8194,-2.8169,-2.8248,-2.8222,-2.8228,-2.824,-2.8249,-2.8255,-2.8252,-2.8144,0,0,0,0,0,-2.8002,-2.8033,-2.805,-2.8094,-2.8104,-2.8112,-2.8129,-2.8128,-2.8147,-2.8155,-2.8167,-2.8186,-2.8213,-2.8231,-2.8258,-2.831,-2.8314,-2.8334,-2.834,-2.8346,-2.8351,-2.838,-2.8389,-2.8293,-2.8293,-2.8293,0,0,-2.8026,-2.8041,-2.8061,-2.8099,-2.8114,-2.8145,-2.8119,-2.8153,-2.8176,-2.816,-2.8202,-2.8212,-2.8232,-2.8281,-2.8303,-2.829,-2.8378,-2.8351,-2.8355,-2.8357,-2.8385,-2.8394,-2.8402,-2.8296,-2.8295,-2.8295,0,0,-2.8084,-2.81,-2.8138,-2.8154,-2.8178,-2.8183,-2.8192,-2.8213,-2.8219,-2.8261,-2.825,-2.8277,-2.8325,-2.834,-2.8354,-2.842,-2.841,-2.8428,-2.8462,-2.849,-2.8498,-2.8504,-2.8528,-2.8536,-2.8433,-2.8433,-2.8433,0,-2.8111,-2.8158,-2.8159,-2.8194,-2.8211,-2.8199,-2.8238,-2.8253,-2.8283,-2.8295,-2.828,-2.8341,-2.8354,-2.8406,-2.8422,-2.8434,-2.8444,-2.8426,-2.8497,-2.8503,-2.8509,-2.8532,-2.8541,-2.8436,-2.8435,-2.8435,-2.8435,0,-2.8189,-2.8222,-2.825,-2.8281,-2.8301,-2.8338,-2.8343,-2.8363,-2.8361,-2.8367,-2.8411,-2.8426,-2.8456,-2.8468,-2.8465,-2.852,-2.8511,-2.8497,-2.847,-2.8521,-2.8542,-2.855,-2.8439,-2.8438,-2.8437,-2.8437,0,0,-2.8263,-2.8295,-2.8306,-2.832,-2.8345,-2.837,-2.8406,-2.8436,-2.8453,-2.8474,-2.8504,-2.8545,-2.8532,-2.8548,-2.8547,-2.8572,-2.8623,-2.8554,-2.8555,-2.8567,-2.8684,-2.8695,-2.8705,-2.8616,-2.8618,-2.8619,-2.8683,0,-2.8324,-2.8389,-2.8391,-2.8449,-2.848,-2.8469,-2.8501,-2.8519,-2.8526,-2.8552,-2.856,-2.8589,-2.857,-2.8579,-2.8603,-2.8612,-2.8646,-2.8607,-2.8643,-2.8645,-2.8639,-2.8716,-2.8728,-2.8787,-2.8691,-2.8692,-2.8693,0,-2.8404,-2.8429,-2.8491,-2.8513,-2.8526,-2.8554,-2.8582,-2.8607,-2.8628,-2.8631,-2.8649,-2.8645,-2.8681,-2.8653,-2.8703,-2.8676,-2.8691,-2.8697,-2.8699,-2.8703,-2.8672,-2.8722,-2.8805,-2.8814,-2.8706,-2.8705,-2.8704,0,-2.8453,-2.8502,-2.8546,-2.8558,-2.8584,-2.8604,-2.8616,-2.8635,-2.8653,-2.8677,-2.8688,-2.8716,-2.8731,-2.8752,-2.8754,-2.8734,-2.8804,-2.8777,-2.8807,-2.8807,-2.8822,-2.8821,-2.891,-2.8832,-2.8832,-2.8832,-2.8832,0,-2.8521,-2.8559,-2.8568,-2.8595,-2.8637,-2.8639,-2.8681,-2.869,-2.8708,-2.8736,-2.8728,-2.8754,-2.8756,-2.8783,-2.8785,-2.8825,-2.8832,-2.8835,-2.8835,-2.8836,-2.8836,-2.8846,-2.8842,-2.8834,-2.8834,-2.8833,-2.8833,0,-2.8582,-2.859,-2.8637,-2.8658,-2.8664,-2.8695,-2.8712,-2.8738,-2.8744,-2.878,-2.8788,-2.8798,-2.8829,-2.8834,-2.887,-2.8872,-2.8921,-2.8916,-2.8914,-2.8913,-2.8944,-2.8941,-2.9042,-2.9056,-2.8969,-2.897,-2.897,0,-2.8625,-2.8654,-2.8679,-2.8698,-2.8711,-2.8741,-2.876,-2.8763,-2.8782,-2.8809,-2.8831,-2.8861,-2.8886,-2.8936,-2.8946,-2.8974,-2.897,-2.9003,-2.8974,-2.8974,-2.8971,-2.8969,-2.8972,-2.9009,-2.901,-2.9011,-2.9011,0,-2.87,-2.8703,-2.8731,-2.876,-2.8783,-2.8806,-2.8828,-2.8843,-2.8849,-2.8871,-2.8904,-2.8923,-2.896,-2.8991,-2.9018,-2.9029,-2.9021,-2.9021,-2.9029,-2.9031,-2.9028,-2.903,-2.893,-2.9018,-2.9018,-2.9017,-2.9017,-2.9017,-2.8754,-2.8779,-2.8802,-2.8833,-2.885,-2.8871,-2.8896,-2.8906,-2.8934,-2.8965,-2.8965,-2.9,-2.902,-2.9057,-2.907,-2.9097,-2.9086,-2.9098,-2.9102,-2.9105,-2.9108,-2.9024,-2.9102,-2.9102,-2.9102,-2.9101,-2.9101,0,-2.8829,-2.8843,-2.8872,-2.8903,-2.8928,-2.8919,-2.8943,-2.8964,-2.8996,-2.9016,-2.9041,-2.9078,-2.9108,-2.912,-2.9149,-2.9169,-2.9166,-2.9176,-2.9175,-2.9178,-2.9116,-2.9106,-2.9178,-2.9178,-2.9178,-2.9178,-2.9178,-2.9178,-2.8871,-2.8914,-2.892,-2.8972,-2.8985,-2.9021,-2.9035,-2.9054,-2.907,-2.9113,-2.9138,-2.9146,-2.9163,-2.9193,-2.922,-2.9223,-2.9234,-2.9246,-2.9247,-2.919,-2.9182,-2.9174,-2.9165,-2.9248,-2.9249,-2.9307,-2.9307,-2.9308]}]]